Regional Weather Roundup
Issued by NWS

Home | Current Version | Previous Version | Text Only | Print | Product List | Glossary On
Versions: 1 2 3 4 5 6 7 8 9 10 11 12 13 14 15 16 17 18 19 20 21 22 23 24 25 26 27 28 29 30 31 32 33 34 35 36 37 38 39 40 41 42 43 44 45 46 47 48 49 50
000
ASUS43 KLMK 272102
RWRKY
KENTUCKY REGIONAL WEATHER ROUNDUP
NATIONAL WEATHER SERVICE LOUISVILLE KY
500 PM EDT MON APR 27 2015

NOTE "FAIR" INDICATES FEW OR NO CLOUDS BELOW 12,000 FEET
WITH NO SIGNIFICANT WEATHER AND/OR OBSTRUCTIONS TO VISIBILITY.

KYZ001>023-026-027-061>063-070>075-272200-
WESTERN AND SOUTH CENTRAL KENTUCKY

CITY           SKY/WX    TMP DP  RH WIND       PRES   REMARKS
PADUCAH        SUNNY     67  40  37 NE13      29.99F
HENDERSON      SUNNY     64  37  36 N8        30.00S
OWENSBORO      MOSUNNY   64  40  41 NW10      30.00S
HOPKINSVILLE   SUNNY     64  38  38 N10G17    29.97F
BOWLING GREEN  SUNNY     67  39  35 VRB6      29.96F
GLASGOW        NOT AVBL
$$

KYZ024-025-028>034-038-045-046-053-272200-
NORTH CENTRAL KENTUCKY

CITY           SKY/WX    TMP DP  RH WIND       PRES   REMARKS
LOUISVILLE/SDF SUNNY     66  35  31 NW7G18    29.96F
LOUISVILLE/LOU MOSUNNY   65  35  33 NW7G17    29.97S
FORT KNOX      SUNNY     64  33  32 VRB7      29.95F
$$

KYZ035>037-039>044-047>052-055>060-089>105-272200-
NORTHEAST KENTUCKY

CITY           SKY/WX    TMP DP  RH WIND       PRES   REMARKS
LEXINGTON      PTSUNNY   61  37  41 N7        29.95F
COVINGTON      PTSUNNY   60  37  42 N15       29.96R
FRANKFORT      CLOUDY    64  34  32 NW13G18   29.95S
$$

KYZ054-064>069-076>088-106>120-272200-
SOUTHEAST KENTUCKY

CITY           SKY/WX    TMP DP  RH WIND       PRES   REMARKS
JACKSON        CLOUDY    58  31  35 MISG      29.94S
LONDON         MOSUNNY   64  30  27 VRB7      29.95R
SOMERSET       NOT AVBL
MIDDLESBORO    SUNNY     63  35  34 N12       29.94R
MONTICELLO     PTCLDY    67  36  31 N10G16    29.98S
$$



USA.gov is the U.S. government's official web portal to all federal, state and local government web resources and services.